Location: Agendoh
(31.0664°N, 8.9343°W)
Time: 08:47:34
(UTC+00:00)

MOS 1-B Rocket - Pass Details

Date: 06 December 2021
Orbit: 891 x 1605 km, 99.0° (Epoch: 24 January)

Event Time Altitude Azimuth Distance (km) Brightness Sun altitude
Rises 05:17:42 0° 157° (SSE) 4,005 7.7 -25.6°
Reaches altitude 10° 05:20:27 10° 154° (SSE) 2,950 7.0 -25.0°
Maximum altitude 05:26:53 63° 75° (ENE) 1,097 4.4 -23.7°
Drops below altitude 10° 05:32:36 10° 355° (N) 2,627 6.1 -22.5°
Enters shadow 05:34:01 - 353° (N) 3,176 6.5 -22.2°
